DAL2789 KMKE-KJFK

Flight info

Callsign DAL2789
Flight time N/A
Altitude 23000
Route KMKE DCT SQUIB DCT HAUCK DCT HRRSH DCT HOCKE Q935 HANKK Q140 YODAA DCT IGN IGN1 KJFK
Aircraft A21N/M-SDFGHRWY/LB1

Departure

Time 2026-04-20 01:52
Airport General Mitchell International Airport (KMKE)

Arrival

Time N/A
Airport John F. Kennedy International Airport (KJFK)
Time Latitude Longitude Altitude Speed Heading
2026-04-20 01:44 42.94990 -87.90038 679 ft 0 kts 310°
2026-04-20 01:46 42.94987 -87.90032 679 ft 4 kts 310°
2026-04-20 01:46 42.94975 -87.90012 676 ft 0 kts 310°
2026-04-20 01:47 42.94972 -87.90008 676 ft 3 kts 310°
2026-04-20 01:47 42.94944 -87.89959 676 ft 5 kts 21°
2026-04-20 01:47 42.94995 -87.89884 676 ft 2 kts 67°
2026-04-20 01:49 42.95014 -87.89800 673 ft 19 kts 27°
2026-04-20 01:49 42.95219 -87.89665 674 ft 36 kts 27°
2026-04-20 01:50 42.95458 -87.89503 679 ft 27 kts 11°
2026-04-20 01:50 42.95657 -87.89472 677 ft 26 kts
2026-04-20 01:50 42.95739 -87.89369 678 ft 19 kts 89°
2026-04-20 01:50 42.95632 -87.89104 679 ft 28 kts 130°
2026-04-20 01:51 42.95650 -87.88994 685 ft 25 kts 71°
2026-04-20 01:51 42.95733 -87.88873 685 ft 3 kts 343°
2026-04-20 01:51 42.95750 -87.89060 679 ft 32 kts 270°
2026-04-20 01:51 42.95705 -87.89305 677 ft 31 kts 202°
2026-04-20 01:52 42.95227 -87.89383 678 ft 110 kts 182°
2026-04-20 01:52 42.94209 -87.89381 836 ft 166 kts 179°
2026-04-20 01:52 42.93164 -87.89516 2201 ft 143 kts 185°
2026-04-20 01:52 42.92012 -87.89726 2058 ft 211 kts 187°
2026-04-20 01:53 42.90219 -87.90087 1860 ft 297 kts 191°
2026-04-20 01:53 42.88171 -87.90727 3632 ft 295 kts 194°
2026-04-20 01:53 42.86208 -87.91230 6048 ft 279 kts 193°
2026-04-20 01:53 42.84336 -87.91649 8112 ft 266 kts 193°
2026-04-20 01:54 42.82532 -87.91996 9836 ft 262 kts 190°
2026-04-20 01:54 42.80693 -87.91719 10913 ft 282 kts 163°
2026-04-20 01:54 42.78906 -87.90281 11470 ft 321 kts 139°
2026-04-20 01:54 42.77538 -87.87777 12445 ft 330 kts 112°
2026-04-20 01:55 42.76927 -87.84843 14090 ft 317 kts 95°
2026-04-20 01:55 42.76639 -87.81869 15219 ft 320 kts 91°
2026-04-20 01:55 42.76395 -87.78826 16098 ft 328 kts 90°
2026-04-20 01:55 42.76152 -87.75716 16999 ft 335 kts 89°
2026-04-20 01:56 42.75896 -87.72530 17892 ft 342 kts 89°
2026-04-20 01:56 42.75630 -87.69325 18793 ft 347 kts 90°
2026-04-20 01:56 42.75362 -87.66041 19587 ft 353 kts 89°
2026-04-20 01:56 42.75086 -87.62694 20336 ft 359 kts 89°
2026-04-20 01:57 42.74801 -87.59290 21087 ft 365 kts 89°
2026-04-20 01:57 42.74509 -87.55796 21577 ft 381 kts 89°
2026-04-20 01:57 42.74213 -87.52099 21820 ft 406 kts 89°
2026-04-20 01:57 42.73916 -87.48142 21916 ft 435 kts 89°
2026-04-20 01:58 42.73623 -87.43897 21955 ft 466 kts 89°
2026-04-20 01:58 42.73333 -87.39350 21970 ft 498 kts 89°
2026-04-20 01:58 42.73055 -87.34574 22008 ft 529 kts 89°
2026-04-20 01:58 42.72783 -87.29449 22058 ft 559 kts 89°
2026-04-20 01:59 42.72532 -87.24102 22067 ft 568 kts 89°
2026-04-20 01:59 42.72289 -87.18739 22058 ft 568 kts 89°
2026-04-20 01:59 42.72052 -87.13375 22066 ft 568 kts 89°
2026-04-20 01:59 42.71819 -87.08023 22063 ft 568 kts 89°
2026-04-20 02:00 42.71589 -87.02658 22063 ft 568 kts 89°
2026-04-20 02:00 42.71360 -86.97293 22059 ft 568 kts 89°
2026-04-20 02:00 42.71137 -86.91939 22083 ft 566 kts 89°
2026-04-20 02:00 42.70935 -86.86591 22070 ft 566 kts 89°
2026-04-20 02:01 42.70746 -86.81315 22063 ft 566 kts 89°
2026-04-20 02:01 42.70560 -86.75998 22055 ft 566 kts 89°
2026-04-20 02:01 42.70377 -86.70636 22051 ft 566 kts 88°
2026-04-20 02:01 42.70198 -86.65298 22050 ft 566 kts 88°
2026-04-20 02:02 42.70022 -86.59958 22043 ft 565 kts 88°
2026-04-20 02:02 42.69852 -86.54618 22074 ft 565 kts 89°
2026-04-20 02:02 42.69704 -86.49284 22052 ft 564 kts 88°
2026-04-20 02:02 42.69568 -86.43953 22038 ft 564 kts 88°
2026-04-20 02:03 42.69440 -86.38701 22036 ft 564 kts 88°
2026-04-20 02:03 42.69397 -86.36900 22035 ft 564 kts 88°